カタログに戻る

STARLINK-30983

運用中通信VLEO
NORAD 58514·PAYLOAD·🇺🇸 United States

打ち上げ Dec 7, 2023 から Cape Canaveral Space Force Station

Loading…

次のパス (今後24時間)

TLE

最新Source: CelesTrak SupGP

元期: Sep 15, 2026, 02:30 UTC

1 58514C 23191G   26258.10465278  .00051757  00000+0  18742-2 0  2581
2 58514  43.0021 113.7510 0001524 272.7174 299.6342 15.27559944    12

AllMySatでSTARLINK-30983をリアルタイム追跡

Download on the App Store